KB4ID Weather Reports


time (UTC)temp
F
wind
direction
speed
knots
gust
knots
rain 1hr
in
rain 24hr
in
rain mn
in
humidity
%
barometer
mb
20200922212410 65 96 0.0 0.0 0.00 0.00 0.00 70 1018.6
20200922211406 66 126 0.0 0.0 0.00 0.00 0.00 72 1018.9
20200922210410 66 63 0.0 0.0 0.00 0.00 0.00 70 1018.9
20200922205405 66 64 0.0 0.0 0.00 0.00 0.00 65 1018.9
20200922201406 67 67 0.0 0.0 0.00 0.00 0.00 63 1019.6
20200922192405 68 75 0.0 0.0 0.00 0.00 0.00 62 1020.3
20200922185405 68 76 0.0 0.9 0.00 0.00 0.00 59 1020.9
20200922182405 67 155 0.0 0.9 0.00 0.00 0.00 60 1021.3
20200922181417 67 331 0.0 0.0 0.00 0.00 0.00 56 1021.6
20200922180406 67 79 0.0 0.0 0.00 0.00 0.00 63 1022.0
20200922174405 67 18 0.0 0.0 0.00 0.00 0.00 61 1022.3
20200922173409 66 18 0.0 0.0 0.00 0.00 0.00 64 1022.6
20200922172405 66 103 0.0 0.0 0.00 0.00 0.00 59 1022.6
20200922171405 66 118 0.0 0.0 0.00 0.00 0.00 62 1023.0
20200922170407 65 49 0.0 0.0 0.00 0.00 0.00 66 1022.6
20200922165409 65 165 0.0 0.0 0.00 0.00 0.00 67 1023.3
20200922164404 65 165 0.0 0.0 0.00 0.00 0.00 68 1023.3
20200922162406 64 176 0.0 0.0 0.00 0.00 0.00 61 1024.0
20200922160404 63 215 0.0 0.0 0.00 0.00 0.00 64 1024.0
20200922154406 61 217 0.0 0.0 0.00 0.00 0.00 72 1024.3
20200922153405 60 175 0.0 0.0 0.00 0.00 0.00 71 1024.7
20200922152404 59 141 0.0 0.0 0.00 0.00 0.00 75 1024.7
20200922151405 58 135 0.0 0.0 0.00 0.00 0.00 82 1024.7
20200922150404 57 122 0.0 0.0 0.00 0.00 0.00 82 1025.0
20200922144405 55 195 0.0 0.0 0.00 0.00 0.00 91 1025.0
20200922143405 54 196 0.0 0.0 0.00 0.00 0.00 98 1025.3
20200922142405 53 196 0.0 0.0 0.00 0.00 0.00 100 1025.0
20200922141405 52 196 0.0 0.0 0.00 0.00 0.00 100 1025.3
20200922135409 50 196 0.0 0.0 0.00 0.00 0.00 100 1025.7
20200922134407 49 196 0.0 0.0 0.00 0.00 0.00 100 1025.3
20200922133405 48 217 0.0 0.0 0.00 0.00 0.00 100 1025.3
20200922132406 47 219 0.0 0.0 0.00 0.00 0.00 100 1025.3
20200922131409 46 219 0.0 0.0 0.00 0.00 0.00 100 1025.3
20200922114412 40 219 0.0 0.0 0.00 0.00 0.00 99 1025.7
20200922113405 40 219 0.0 0.0 0.00 0.00 0.00 99 1025.3
20200922110408 40 219 0.0 0.0 0.00 0.00 0.00 99 1025.3
20200922104406 41 219 0.0 0.0 0.00 0.00 0.00 98 1025.3
20200922103406 41 219 0.0 0.0 0.00 0.00 0.00 98 1025.3
20200922101406 41 219 0.0 0.0 0.00 0.00 0.00 99 1025.7
20200922100406 41 219 0.0 0.0 0.00 0.00 0.00 98 1025.7
20200922095405 41 219 0.0 0.0 0.00 0.00 0.00 98 1025.7
20200922094406 41 219 0.0 0.0 0.00 0.00 0.00 98 1025.7
20200922093409 42 219 0.0 0.0 0.00 0.00 0.00 98 1025.3
20200922090406 42 219 0.0 0.0 0.00 0.00 0.00 99 1025.3
20200922084406 42 219 0.0 0.0 0.00 0.00 0.00 99 1025.3
20200922082407 42 219 0.0 0.0 0.00 0.00 0.00 99 1025.3
20200922080406 42 219 0.0 0.0 0.00 0.00 0.00 98 1025.7
20200922075405 43 219 0.0 0.0 0.00 0.00 0.00 98 1025.7
20200922074407 43 219 0.0 0.0 0.00 0.00 0.00 98 1025.7
20200922071407 43 219 0.0 0.0 0.00 0.00 0.00 98 1026.0
20200922070405 43 219 0.0 0.0 0.00 0.00 0.00 98 1026.0
20200922064408 43 219 0.0 0.0 0.00 0.00 0.00 98 1026.4
20200922063406 44 219 0.0 0.0 0.00 0.00 0.00 98 1026.4
20200922061404 44 219 0.0 0.0 0.00 0.00 0.00 98 1026.4
20200922055407 44 219 0.0 0.0 0.00 0.00 0.00 98 1026.7
20200922053408 45 219 0.0 0.0 0.00 0.00 0.00 98 1027.0
20200922052408 45 219 0.0 0.0 0.00 0.00 0.00 98 1027.0
20200922050401 45 219 0.0 0.0 0.00 0.00 0.00 98 1027.4
20200922045409 45 219 0.0 0.0 0.00 0.00 0.00 98 1027.4
20200922044406 45 219 0.0 0.0 0.00 0.00 0.00 98 1027.4
20200922035408 46 219 0.0 0.0 0.00 0.00 0.00 97 1028.1
20200922034406 46 219 0.0 0.0 0.00 0.00 0.00 97 1028.1
20200922033407 47 219 0.0 0.0 0.00 0.00 0.00 97 1028.1
20200922030406 47 219 0.0 0.0 0.00 0.00 0.00 96 1028.1
20200922025405 48 219 0.0 0.0 0.00 0.00 0.00 96 1028.1
20200922023408 48 219 0.0 0.0 0.00 0.00 0.00 96 1027.7
20200922015407 49 219 0.0 0.0 0.00 0.00 0.00 95 1028.1
20200922012405 50 219 0.0 0.0 0.00 0.00 0.00 95 1028.1
20200922011406 50 219 0.0 0.0 0.00 0.00 0.00 94 1028.1
20200922010407 51 219 0.0 0.0 0.00 0.00 0.00 94 1028.1
20200922005406 51 219 0.0 0.0 0.00 0.00 0.00 93 1028.1
20200922004406 51 219 0.0 0.0 0.00 0.00 0.00 93 1028.1
20200922003406 52 219 0.0 0.0 0.00 0.00 0.00 92 1028.1
20200922002407 52 219 0.0 0.0 0.00 0.00 0.00 92 1028.1
20200922001408 53 219 0.0 0.0 0.00 0.00 0.00 91 1028.1
20200922000406 53 219 0.0 0.0 0.00 0.00 0.00 90 1028.1
20200921235406 54 219 0.0 0.0 0.00 0.00 0.00 88 1028.1
20200921233408 56 219 0.0 0.0 0.00 0.00 0.00 84 1028.1
20200921223409 60 219 0.0 0.0 0.00 0.00 0.00 75 1028.4
20200921222406 61 219 0.0 0.0 0.00 0.00 0.00 73 1028.1
20200921220408 61 220 0.0 0.0 0.00 0.00 0.00 72 1028.4
20200921215407 62 192 0.0 0.0 0.00 0.00 0.00 69 1028.4
20200921214410 62 207 0.0 0.0 0.00 0.00 0.00 70 1028.4
20200921213406 62 250 0.0 1.7 0.00 0.00 0.00 72 1028.4